Location: *
(2.5500°S, 65.9667°W)
Time: 14:10:15
(UTC+00:00)

Cosmos 2084 - Pass Details

Date: 31 May 2022
Orbit: 506 x 671 km, 62.8° (Epoch: 30 June)

Event Time Altitude Azimuth Distance (km) Brightness Sun altitude
Exits shadow 08:42:09 19° 343° (NNW) 1,275 5.2 -24.0°
Drops below altitude 10° 08:43:33 10° 357° (N) 1,738 6.1 -23.6°
Sets 08:45:50 0° 7° (N) 2,606 7.2 -23.1°
